VKG9166 EKCH-LGST

Flight info

Callsign VKG9166
Flight time 3h 4m
Altitude 35000
Route SIMEG Z493 XELOL DCT VAGON DCT REGLI DCT BILNA DCT BALAP DCT PARAK/N0446F370 DCT REDVA UL616 KOGAT DCT BITLA UN132 KEA DCT GENDO UL607 GIVIS UT514 XAVIS
Aircraft A321/M-SDE3FGHIRWY/LB1

Departure

Time 2026-04-23 15:13
Airport Copenhagen Kastrup Airport (EKCH)

Arrival

Time 2026-04-23 18:17
Airport Sitia Airport (LGST)
Time Latitude Longitude Altitude Speed Heading
2026-04-23 14:55 55.62882 12.63998 24 ft 0 kts 13°
2026-04-23 15:02 55.62875 12.63996 25 ft 2 kts 12°
2026-04-23 15:02 55.62859 12.63989 24 ft 2 kts 15°
2026-04-23 15:03 55.62843 12.63980 27 ft 2 kts 23°
2026-04-23 15:03 55.62828 12.63965 28 ft 2 kts 84°
2026-04-23 15:03 55.62831 12.63937 25 ft 2 kts 102°
2026-04-23 15:03 55.62835 12.63908 24 ft 2 kts 104°
2026-04-23 15:04 55.62839 12.63880 24 ft 2 kts 104°
2026-04-23 15:04 55.62841 12.63867 25 ft 0 kts 104°
2026-04-23 15:05 55.62831 12.63922 26 ft 14 kts 117°
2026-04-23 15:06 55.62763 12.63936 24 ft 9 kts 210°
2026-04-23 15:06 55.62710 12.63878 24 ft 11 kts 212°
2026-04-23 15:06 55.62632 12.63794 25 ft 13 kts 206°
2026-04-23 15:06 55.62550 12.63770 24 ft 13 kts 178°
2026-04-23 15:07 55.62435 12.63874 22 ft 22 kts 131°
2026-04-23 15:07 55.62351 12.64094 21 ft 22 kts 122°
2026-04-23 15:07 55.62273 12.64309 22 ft 19 kts 123°
2026-04-23 15:07 55.62170 12.64419 25 ft 17 kts 169°
2026-04-23 15:08 55.62065 12.64453 24 ft 16 kts 169°
2026-04-23 15:08 55.61897 12.64508 24 ft 31 kts 169°
2026-04-23 15:08 55.61708 12.64567 24 ft 19 kts 179°
2026-04-23 15:09 55.61417 12.64266 25 ft 29 kts 213°
2026-04-23 15:09 55.61252 12.64075 24 ft 28 kts 212°
2026-04-23 15:09 55.61093 12.63893 24 ft 27 kts 213°
2026-04-23 15:09 55.60940 12.63717 24 ft 26 kts 213°
2026-04-23 15:10 55.60792 12.63547 24 ft 25 kts 213°
2026-04-23 15:10 55.60657 12.63388 26 ft 18 kts 218°
2026-04-23 15:10 55.60564 12.63251 24 ft 17 kts 221°
2026-04-23 15:10 55.60481 12.63244 24 ft 9 kts 139°
2026-04-23 15:11 55.60464 12.63278 24 ft 0 kts 130°
2026-04-23 15:11 55.60464 12.63279 24 ft 1 kts 130°
2026-04-23 15:11 55.60442 12.63322 24 ft 5 kts 130°
2026-04-23 15:11 55.60414 12.63387 24 ft 8 kts 118°
2026-04-23 15:12 55.60420 12.63466 25 ft 6 kts 53°
2026-04-23 15:12 55.60463 12.63537 24 ft 17 kts 41°
2026-04-23 15:12 55.60754 12.63985 29 ft 99 kts 41°
2026-04-23 15:12 55.61471 12.65083 29 ft 170 kts 42°
2026-04-23 15:13 55.62438 12.66565 543 ft 190 kts 34°
2026-04-23 15:13 55.63513 12.68208 1208 ft 218 kts 36°
2026-04-23 15:13 55.64630 12.70237 2052 ft 244 kts 53°
2026-04-23 15:13 55.65151 12.73205 2981 ft 266 kts 85°
2026-04-23 15:14 55.64629 12.76416 3778 ft 283 kts 119°
2026-04-23 15:14 55.63416 12.79186 4632 ft 288 kts 129°
2026-04-23 15:14 55.62045 12.81805 5440 ft 291 kts 131°
2026-04-23 15:14 55.60650 12.84415 6236 ft 294 kts 131°
2026-04-23 15:15 55.59236 12.87050 6995 ft 297 kts 131°
2026-04-23 15:15 55.57798 12.89724 7694 ft 301 kts 131°
2026-04-23 15:15 55.56348 12.92422 8396 ft 306 kts 131°
2026-04-23 15:15 55.54868 12.95172 9088 ft 311 kts 131°
2026-04-23 15:16 55.53365 12.97962 9772 ft 315 kts 131°
2026-04-23 15:16 55.51853 13.00767 10366 ft 323 kts 131°
2026-04-23 15:16 55.50233 13.03780 10505 ft 347 kts 131°
2026-04-23 15:16 55.48525 13.06962 10662 ft 367 kts 131°
2026-04-23 15:17 55.46742 13.10271 11139 ft 375 kts 131°
2026-04-23 15:17 55.44930 13.13615 11767 ft 379 kts 131°
2026-04-23 15:17 55.43099 13.16988 12423 ft 382 kts 131°
2026-04-23 15:17 55.41252 13.20382 13077 ft 385 kts 131°
2026-04-23 15:18 55.39415 13.23758 13723 ft 389 kts 131°
2026-04-23 15:18 55.37539 13.27207 14310 ft 392 kts 131°
2026-04-23 15:18 55.35644 13.30690 14876 ft 395 kts 131°
2026-04-23 15:18 55.33736 13.34190 15439 ft 399 kts 131°
2026-04-23 15:19 55.31780 13.37766 16003 ft 402 kts 131°
2026-04-23 15:19 55.29833 13.41319 16550 ft 406 kts 131°
2026-04-23 15:19 55.27894 13.44851 17089 ft 409 kts 131°
2026-04-23 15:19 55.25902 13.48471 17628 ft 412 kts 131°
2026-04-23 15:20 55.23920 13.52118 18155 ft 415 kts 130°
2026-04-23 15:20 55.21985 13.55891 18647 ft 418 kts 128°
2026-04-23 15:20 55.20077 13.59766 19090 ft 421 kts 127°
2026-04-23 15:20 55.18180 13.63692 19528 ft 424 kts 127°
2026-04-23 15:21 55.16272 13.67647 19960 ft 427 kts 127°
2026-04-23 15:21 55.14340 13.71613 20386 ft 430 kts 127°
2026-04-23 15:21 55.12379 13.75593 20808 ft 434 kts 128°
2026-04-23 15:21 55.10389 13.79589 21239 ft 437 kts 128°
2026-04-23 15:22 55.08377 13.83595 21665 ft 440 kts 128°
2026-04-23 15:22 55.06349 13.87612 22079 ft 444 kts 128°
2026-04-23 15:22 55.04296 13.91671 22496 ft 447 kts 128°
2026-04-23 15:22 55.02237 13.95746 22905 ft 450 kts 128°
2026-04-23 15:23 55.00167 13.99851 23316 ft 453 kts 128°
2026-04-23 15:23 54.98078 14.04000 23705 ft 456 kts 128°
2026-04-23 15:23 54.95981 14.08159 24042 ft 459 kts 128°
2026-04-23 15:23 54.93865 14.12341 24396 ft 461 kts 128°
2026-04-23 15:24 54.91635 14.16379 24760 ft 466 kts 135°
2026-04-23 15:24 54.89068 14.19862 25114 ft 470 kts 143°
2026-04-23 15:24 54.86381 14.23115 25466 ft 472 kts 142°
2026-04-23 15:24 54.83713 14.26343 25813 ft 474 kts 142°
2026-04-23 15:25 54.81001 14.29620 26159 ft 476 kts 142°
2026-04-23 15:25 54.78284 14.32900 26497 ft 478 kts 142°
2026-04-23 15:25 54.75538 14.36179 26832 ft 480 kts 143°
2026-04-23 15:25 54.72758 14.39394 27170 ft 482 kts 144°
2026-04-23 15:26 54.69940 14.42570 27491 ft 485 kts 144°
2026-04-23 15:26 54.67101 14.45721 27815 ft 487 kts 144°
2026-04-23 15:26 54.64245 14.48883 28133 ft 488 kts 144°
2026-04-23 15:26 54.61380 14.52059 28438 ft 490 kts 144°
2026-04-23 15:27 54.58508 14.55257 28739 ft 492 kts 144°
2026-04-23 15:27 54.55632 14.58478 29037 ft 494 kts 143°
2026-04-23 15:27 54.52749 14.61720 29323 ft 496 kts 143°
2026-04-23 15:27 54.49856 14.64969 29615 ft 498 kts 143°
2026-04-23 15:28 54.46950 14.68224 29904 ft 499 kts 143°
2026-04-23 15:28 54.44029 14.71479 30187 ft 501 kts 143°
2026-04-23 15:28 54.41097 14.74737 30465 ft 502 kts 143°
2026-04-23 15:28 54.38170 14.77982 30824 ft 501 kts 143°
2026-04-23 15:29 54.35237 14.81227 31169 ft 500 kts 143°
2026-04-23 15:29 54.32314 14.84456 31514 ft 499 kts 143°
2026-04-23 15:29 54.29395 14.87682 31873 ft 498 kts 144°
2026-04-23 15:29 54.26376 14.90622 32198 ft 501 kts 152°
2026-04-23 15:30 54.23226 14.93163 32526 ft 501 kts 152°
2026-04-23 15:30 54.20074 14.95692 32862 ft 501 kts 152°
2026-04-23 15:30 54.16912 14.98220 33208 ft 500 kts 152°
2026-04-23 15:30 54.13767 15.00731 33551 ft 499 kts 152°
2026-04-23 15:31 54.10614 15.03252 33888 ft 499 kts 152°
2026-04-23 15:31 54.07478 15.05759 34208 ft 498 kts 152°
2026-04-23 15:31 54.04345 15.08262 34490 ft 498 kts 152°
2026-04-23 15:31 54.01208 15.10763 34782 ft 497 kts 152°
2026-04-23 15:32 53.98081 15.13243 35062 ft 496 kts 152°
2026-04-23 15:32 53.94952 15.15715 35337 ft 496 kts 152°
2026-04-23 15:32 53.91823 15.18183 35614 ft 495 kts 152°
2026-04-23 15:32 53.88745 15.20610 35868 ft 494 kts 152°
2026-04-23 15:33 53.85627 15.23071 36143 ft 494 kts 152°
2026-04-23 15:33 53.82519 15.25523 36410 ft 493 kts 152°
2026-04-23 15:33 53.79408 15.27973 36663 ft 492 kts 152°
2026-04-23 15:33 53.76306 15.30412 36910 ft 492 kts 152°
2026-04-23 15:34 53.73205 15.32845 37121 ft 492 kts 152°
2026-04-23 15:34 53.66990 15.37701 37168 ft 491 kts 152°
2026-04-23 15:35 53.60800 15.42526 37165 ft 491 kts 152°
2026-04-23 15:35 53.54593 15.47345 37165 ft 491 kts 152°
2026-04-23 15:36 53.48395 15.52150 37158 ft 491 kts 152°
2026-04-23 15:36 53.42192 15.56949 37163 ft 491 kts 152°
2026-04-23 15:37 53.35978 15.61729 37161 ft 491 kts 152°
2026-04-23 15:37 53.30816 15.65689 37161 ft 491 kts 152°
2026-04-23 15:38 53.23554 15.71243 37155 ft 491 kts 152°
2026-04-23 15:38 53.17331 15.75986 37159 ft 491 kts 152°
2026-04-23 15:39 53.11105 15.80703 37158 ft 492 kts 152°
2026-04-23 15:39 53.04878 15.85422 37156 ft 492 kts 152°
2026-04-23 15:40 52.98648 15.90126 37152 ft 492 kts 152°
2026-04-23 15:40 52.92411 15.94822 37150 ft 492 kts 152°
2026-04-23 15:41 52.86180 15.99498 37148 ft 492 kts 152°
2026-04-23 15:41 52.79945 16.04149 37143 ft 491 kts 152°
2026-04-23 15:42 52.73749 16.08759 37144 ft 491 kts 152°
2026-04-23 15:42 52.67519 16.13390 37142 ft 491 kts 152°
2026-04-23 15:43 52.61286 16.18008 37135 ft 491 kts 152°
2026-04-23 15:43 52.55053 16.22615 37136 ft 491 kts 152°
2026-04-23 15:44 52.48818 16.27204 37139 ft 491 kts 152°
2026-04-23 15:44 52.43592 16.31038 37133 ft 491 kts 152°
2026-04-23 15:45 52.37357 16.35588 37140 ft 491 kts 152°
2026-04-23 15:45 52.31164 16.40104 37131 ft 491 kts 152°
2026-04-23 15:46 52.24926 16.44648 37125 ft 491 kts 152°
2026-04-23 15:46 52.18692 16.49177 37128 ft 490 kts 152°
2026-04-23 15:47 52.12460 16.53674 37130 ft 490 kts 152°
2026-04-23 15:47 52.06227 16.58161 37128 ft 490 kts 152°
2026-04-23 15:48 51.99993 16.62647 37126 ft 490 kts 152°
2026-04-23 15:48 51.93756 16.67117 37125 ft 490 kts 152°
2026-04-23 15:49 51.87523 16.71563 37127 ft 489 kts 152°
2026-04-23 15:49 51.81293 16.75999 37127 ft 489 kts 152°
2026-04-23 15:50 51.75057 16.80420 37126 ft 489 kts 152°
2026-04-23 15:50 51.68825 16.84824 37123 ft 489 kts 152°
2026-04-23 15:51 51.62595 16.89220 37127 ft 489 kts 152°
2026-04-23 15:51 51.56368 16.93595 37122 ft 488 kts 152°
2026-04-23 15:52 51.50177 16.97936 37121 ft 488 kts 152°
2026-04-23 15:52 51.43952 17.02299 37121 ft 488 kts 151°
2026-04-23 15:53 51.37726 17.06646 37123 ft 488 kts 152°
2026-04-23 15:53 51.31490 17.10971 37127 ft 488 kts 151°
2026-04-23 15:54 51.25270 17.15330 37123 ft 487 kts 151°
2026-04-23 15:54 51.19077 17.19736 37125 ft 487 kts 150°
2026-04-23 15:55 51.12884 17.24125 37127 ft 487 kts 151°
2026-04-23 15:55 51.06688 17.28481 37124 ft 487 kts 151°
2026-04-23 15:56 51.00479 17.32825 37120 ft 486 kts 151°
2026-04-23 15:56 50.94290 17.37147 37116 ft 486 kts 151°
2026-04-23 15:57 50.88105 17.41467 37110 ft 486 kts 150°
2026-04-23 15:57 50.81962 17.45753 37109 ft 485 kts 150°
2026-04-23 15:58 50.75772 17.50039 37105 ft 485 kts 151°
2026-04-23 15:58 50.69592 17.54305 37108 ft 485 kts 151°
2026-04-23 15:59 50.63406 17.58561 37106 ft 484 kts 150°
2026-04-23 15:59 50.57239 17.62803 37104 ft 484 kts 151°
2026-04-23 16:00 50.51057 17.67040 37106 ft 483 kts 151°
2026-04-23 16:00 50.44880 17.71255 37094 ft 483 kts 151°
2026-04-23 16:01 50.38759 17.75429 37089 ft 483 kts 151°
2026-04-23 16:01 50.32561 17.79652 37092 ft 482 kts 151°
2026-04-23 16:02 50.26445 17.83800 37095 ft 482 kts 151°
2026-04-23 16:02 50.20290 17.87954 37084 ft 482 kts 151°
2026-04-23 16:03 50.14137 17.92096 37094 ft 481 kts 151°
2026-04-23 16:03 50.07990 17.96224 37097 ft 481 kts 151°
2026-04-23 16:04 50.01854 18.00346 37074 ft 479 kts 150°
2026-04-23 16:04 49.95783 18.04633 37075 ft 478 kts 149°
2026-04-23 16:05 49.90792 18.08284 37077 ft 477 kts 149°
2026-04-23 16:05 49.83766 18.13382 37086 ft 476 kts 149°
2026-04-23 16:06 49.77739 18.17673 37090 ft 476 kts 149°
2026-04-23 16:06 49.71723 18.21927 37096 ft 476 kts 150°
2026-04-23 16:07 49.65740 18.26157 37109 ft 475 kts 149°
2026-04-23 16:07 49.59726 18.30409 37105 ft 475 kts 149°
2026-04-23 16:08 49.53727 18.34642 37105 ft 474 kts 150°
2026-04-23 16:08 49.47727 18.38859 37090 ft 474 kts 150°
2026-04-23 16:09 49.41720 18.43068 37086 ft 474 kts 150°
2026-04-23 16:09 49.35686 18.47169 37083 ft 475 kts 152°
2026-04-23 16:10 49.29540 18.50948 37093 ft 476 kts 153°
2026-04-23 16:10 49.23376 18.54635 37087 ft 476 kts 153°
2026-04-23 16:11 49.17238 18.58400 37081 ft 475 kts 153°
2026-04-23 16:11 49.11112 18.62208 37068 ft 475 kts 153°
2026-04-23 16:12 49.04984 18.65994 37076 ft 475 kts 153°
2026-04-23 16:12 48.98852 18.69748 37065 ft 475 kts 153°
2026-04-23 16:13 48.92724 18.73490 37058 ft 475 kts 153°
2026-04-23 16:13 48.83527 18.79099 37050 ft 474 kts 154°
2026-04-23 16:14 48.77399 18.82827 37041 ft 474 kts 154°
2026-04-23 16:14 48.71316 18.86500 37045 ft 474 kts 154°
2026-04-23 16:15 48.65154 18.90214 37035 ft 473 kts 154°
2026-04-23 16:15 48.59039 18.93895 37033 ft 472 kts 154°
2026-04-23 16:16 48.52933 18.97569 37031 ft 472 kts 155°
2026-04-23 16:16 48.46834 19.01240 37027 ft 472 kts 155°
2026-04-23 16:17 48.40733 19.04892 37027 ft 471 kts 155°
2026-04-23 16:17 48.34635 19.08523 37018 ft 471 kts 155°
2026-04-23 16:18 48.28547 19.12140 37016 ft 470 kts 155°
2026-04-23 16:18 48.22457 19.15753 37020 ft 470 kts 155°
2026-04-23 16:19 48.16374 19.19351 37011 ft 470 kts 156°
2026-04-23 16:19 48.10330 19.22915 37017 ft 470 kts 156°
2026-04-23 16:20 48.04210 19.26383 37010 ft 471 kts 159°
2026-04-23 16:20 47.97947 19.29297 37006 ft 472 kts 161°
2026-04-23 16:21 47.91637 19.31999 36998 ft 472 kts 161°
2026-04-23 16:21 47.85336 19.34783 37008 ft 472 kts 161°
2026-04-23 16:22 47.79055 19.37665 37000 ft 472 kts 160°
2026-04-23 16:22 47.72785 19.40553 37010 ft 472 kts 161°
2026-04-23 16:23 47.67568 19.42933 37005 ft 472 kts 161°
2026-04-23 16:23 47.60214 19.46253 37014 ft 473 kts 161°
2026-04-23 16:24 47.53921 19.49082 37007 ft 473 kts 161°
2026-04-23 16:24 47.47630 19.51913 37014 ft 473 kts 161°
2026-04-23 16:25 47.41328 19.54739 37017 ft 473 kts 161°
2026-04-23 16:25 47.35033 19.57551 37023 ft 473 kts 161°
2026-04-23 16:26 47.29802 19.59894 37017 ft 473 kts 161°
2026-04-23 16:26 47.23512 19.62713 37019 ft 472 kts 161°
2026-04-23 16:27 47.17215 19.65514 37016 ft 472 kts 162°
2026-04-23 16:27 47.10926 19.68290 37025 ft 472 kts 162°
2026-04-23 16:28 47.04634 19.71065 37024 ft 472 kts 162°
2026-04-23 16:28 46.98350 19.73845 37027 ft 472 kts 162°
2026-04-23 16:29 46.92069 19.76611 37025 ft 471 kts 162°
2026-04-23 16:29 46.85790 19.79375 37031 ft 471 kts 162°
2026-04-23 16:30 46.79516 19.82130 37023 ft 471 kts 162°
2026-04-23 16:30 46.73244 19.84870 37033 ft 470 kts 162°
2026-04-23 16:31 46.66976 19.87597 37024 ft 470 kts 162°
2026-04-23 16:31 46.60703 19.90329 37031 ft 470 kts 162°
2026-04-23 16:32 46.54441 19.93045 37025 ft 470 kts 162°
2026-04-23 16:32 46.48184 19.95751 37035 ft 469 kts 162°
2026-04-23 16:33 46.41919 19.98459 37027 ft 469 kts 162°
2026-04-23 16:33 46.35658 20.01161 37033 ft 469 kts 162°
2026-04-23 16:34 46.29401 20.03850 37024 ft 469 kts 162°
2026-04-23 16:34 46.23138 20.06525 37032 ft 469 kts 162°
2026-04-23 16:35 46.16870 20.09141 37025 ft 469 kts 167°
2026-04-23 16:35 46.10396 20.10399 37032 ft 470 kts 173°
2026-04-23 16:36 46.03904 20.11452 37031 ft 470 kts 173°
2026-04-23 16:36 45.97413 20.12518 37025 ft 470 kts 173°
2026-04-23 16:37 45.90914 20.13591 37019 ft 470 kts 173°
2026-04-23 16:37 45.84415 20.14652 37035 ft 470 kts 173°
2026-04-23 16:38 45.77963 20.15704 37029 ft 470 kts 173°
2026-04-23 16:38 45.71426 20.16763 37033 ft 470 kts 173°
2026-04-23 16:39 45.64964 20.17809 37025 ft 470 kts 173°
2026-04-23 16:39 45.58468 20.18861 37037 ft 470 kts 173°
2026-04-23 16:40 45.51972 20.19905 37033 ft 470 kts 173°
2026-04-23 16:40 45.45466 20.20954 37042 ft 470 kts 173°
2026-04-23 16:41 45.38966 20.21994 37039 ft 470 kts 173°
2026-04-23 16:41 45.32467 20.23029 37038 ft 470 kts 173°
2026-04-23 16:42 45.25963 20.24062 37032 ft 470 kts 174°
2026-04-23 16:42 45.19468 20.25095 37045 ft 470 kts 174°
2026-04-23 16:43 45.12968 20.26135 37040 ft 470 kts 174°
2026-04-23 16:43 45.06464 20.27167 37048 ft 470 kts 174°
2026-04-23 16:44 44.99970 20.28201 37041 ft 470 kts 174°
2026-04-23 16:44 44.93467 20.29233 37049 ft 470 kts 174°
2026-04-23 16:45 44.86968 20.30248 37044 ft 470 kts 174°
2026-04-23 16:45 44.80468 20.31273 37049 ft 470 kts 174°
2026-04-23 16:46 44.73977 20.32307 37045 ft 470 kts 174°
2026-04-23 16:46 44.67479 20.33319 37055 ft 470 kts 175°
2026-04-23 16:47 44.60981 20.34322 37054 ft 469 kts 175°
2026-04-23 16:47 44.54484 20.35332 37066 ft 469 kts 175°
2026-04-23 16:48 44.47993 20.36347 37064 ft 469 kts 175°
2026-04-23 16:48 44.41499 20.37354 37068 ft 469 kts 175°
2026-04-23 16:49 44.34994 20.38351 37067 ft 470 kts 175°
2026-04-23 16:49 44.28497 20.39360 37070 ft 470 kts 175°
2026-04-23 16:50 44.22007 20.40368 37067 ft 470 kts 175°
2026-04-23 16:50 44.15509 20.41360 37072 ft 470 kts 176°
2026-04-23 16:51 44.09046 20.42345 37070 ft 470 kts 176°
2026-04-23 16:51 44.02550 20.43339 37067 ft 470 kts 176°
2026-04-23 16:52 43.96045 20.44338 37064 ft 470 kts 176°
2026-04-23 16:52 43.89538 20.45332 37065 ft 470 kts 176°
2026-04-23 16:53 43.83035 20.46318 37061 ft 470 kts 176°
2026-04-23 16:53 43.76526 20.47302 37063 ft 470 kts 177°
2026-04-23 16:54 43.70016 20.48287 37063 ft 470 kts 176°
2026-04-23 16:54 43.63509 20.49278 37067 ft 471 kts 177°
2026-04-23 16:55 43.56994 20.50258 37067 ft 471 kts 177°
2026-04-23 16:55 43.50478 20.51228 37073 ft 471 kts 177°
2026-04-23 16:56 43.43957 20.52211 37065 ft 471 kts 178°
2026-04-23 16:56 43.37438 20.53192 37066 ft 471 kts 178°
2026-04-23 16:57 43.30921 20.54161 37066 ft 471 kts 178°
2026-04-23 16:57 43.24398 20.55127 37067 ft 471 kts 178°
2026-04-23 16:58 43.17877 20.56104 37062 ft 472 kts 178°
2026-04-23 16:58 43.11352 20.57079 37066 ft 472 kts 178°
2026-04-23 16:59 43.04830 20.58037 37060 ft 472 kts 178°
2026-04-23 16:59 42.98410 20.60098 37054 ft 480 kts 162°
2026-04-23 17:00 42.92190 20.63421 37037 ft 480 kts 162°
2026-04-23 17:00 42.85958 20.66707 37039 ft 481 kts 163°
2026-04-23 17:01 42.79714 20.69982 37038 ft 481 kts 163°
2026-04-23 17:01 42.73465 20.73258 37041 ft 481 kts 163°
2026-04-23 17:02 42.67223 20.76523 37036 ft 481 kts 163°
2026-04-23 17:02 42.60983 20.79786 37030 ft 481 kts 163°
2026-04-23 17:03 42.54743 20.83044 37025 ft 481 kts 164°
2026-04-23 17:03 42.48505 20.86294 37048 ft 475 kts 167°
2026-04-23 17:04 42.42323 20.89515 37032 ft 479 kts 164°
2026-04-23 17:04 42.36082 20.92747 37037 ft 481 kts 164°
2026-04-23 17:05 42.29830 20.95981 37039 ft 481 kts 164°
2026-04-23 17:05 42.23580 20.99210 37039 ft 481 kts 164°
2026-04-23 17:06 42.17321 21.02431 37046 ft 482 kts 164°
2026-04-23 17:06 42.11039 21.05505 37029 ft 476 kts 171°
2026-04-23 17:07 42.04574 21.07214 37037 ft 473 kts 175°
2026-04-23 17:07 41.99189 21.08545 37034 ft 474 kts 175°
2026-04-23 17:08 41.92700 21.10158 37032 ft 474 kts 175°
2026-04-23 17:08 41.86215 21.11768 37022 ft 473 kts 175°
2026-04-23 17:09 41.79747 21.13366 37017 ft 472 kts 175°
2026-04-23 17:09 41.73274 21.14961 37018 ft 474 kts 175°
2026-04-23 17:10 41.66778 21.16566 37041 ft 475 kts 175°
2026-04-23 17:10 41.60268 21.18164 37036 ft 475 kts 175°
2026-04-23 17:11 41.53780 21.19748 37033 ft 474 kts 175°
2026-04-23 17:11 41.47294 21.21340 37024 ft 473 kts 175°
2026-04-23 17:12 41.40819 21.22927 37022 ft 474 kts 175°
2026-04-23 17:12 41.34325 21.24509 37024 ft 474 kts 175°
2026-04-23 17:13 41.27829 21.26084 37031 ft 474 kts 176°
2026-04-23 17:13 41.21345 21.27652 37026 ft 473 kts 176°
2026-04-23 17:14 41.14859 21.29226 37026 ft 473 kts 176°
2026-04-23 17:14 41.08382 21.30795 37014 ft 473 kts 176°
2026-04-23 17:15 41.01906 21.32363 37022 ft 473 kts 176°
2026-04-23 17:15 40.95425 21.33919 37013 ft 473 kts 176°
2026-04-23 17:16 40.88973 21.35810 37007 ft 481 kts 166°
2026-04-23 17:16 40.83001 21.40013 37019 ft 493 kts 148°
2026-04-23 17:17 40.77398 21.45261 37016 ft 494 kts 148°
2026-04-23 17:17 40.71782 21.50499 37013 ft 495 kts 148°
2026-04-23 17:18 40.63341 21.58314 37012 ft 495 kts 149°
2026-04-23 17:19 40.57699 21.63516 37013 ft 495 kts 149°
2026-04-23 17:19 40.52064 21.68710 37007 ft 495 kts 149°
2026-04-23 17:20 40.46417 21.73909 37012 ft 495 kts 149°
2026-04-23 17:21 40.35125 21.84276 37021 ft 496 kts 149°
2026-04-23 17:21 40.26636 21.92040 37021 ft 496 kts 149°
2026-04-23 17:22 40.18147 21.99774 37019 ft 496 kts 149°
2026-04-23 17:23 40.09654 22.07481 37020 ft 495 kts 149°
2026-04-23 17:24 40.01176 22.15174 37030 ft 494 kts 149°
2026-04-23 17:24 39.92707 22.22814 37031 ft 493 kts 149°
2026-04-23 17:25 39.84252 22.30418 37029 ft 491 kts 149°
2026-04-23 17:26 39.73035 22.40468 37030 ft 491 kts 149°
2026-04-23 17:27 39.64574 22.48040 37030 ft 490 kts 149°
2026-04-23 17:27 39.58961 22.53054 37031 ft 490 kts 149°
2026-04-23 17:28 39.53347 22.58049 37030 ft 489 kts 149°
2026-04-23 17:28 39.47740 22.63026 37033 ft 489 kts 149°
2026-04-23 17:29 39.42164 22.67962 37035 ft 488 kts 149°
2026-04-23 17:30 39.34671 22.74580 37034 ft 487 kts 149°
2026-04-23 17:30 39.25362 22.82784 37034 ft 487 kts 149°
2026-04-23 17:31 39.19765 22.87709 37031 ft 486 kts 149°
2026-04-23 17:31 39.14172 22.92611 37035 ft 486 kts 149°
2026-04-23 17:32 39.08583 22.97505 37036 ft 485 kts 149°
2026-04-23 17:32 39.02995 23.02392 37040 ft 485 kts 149°
2026-04-23 17:33 38.97420 23.07263 37043 ft 484 kts 150°
2026-04-23 17:33 38.91839 23.12123 37048 ft 484 kts 150°
2026-04-23 17:34 38.86264 23.16967 37050 ft 484 kts 150°
2026-04-23 17:35 38.77906 23.24208 37051 ft 483 kts 150°
2026-04-23 17:35 38.69551 23.31431 37049 ft 483 kts 150°
2026-04-23 17:36 38.63989 23.36228 37048 ft 482 kts 150°
2026-04-23 17:36 38.58424 23.41010 37060 ft 481 kts 150°
2026-04-23 17:37 38.52868 23.45782 37057 ft 481 kts 150°
2026-04-23 17:37 38.47318 23.50546 37174 ft 480 kts 150°
2026-04-23 17:38 38.44569 23.52906 37020 ft 472 kts 150°
2026-04-23 17:38 38.39171 23.57529 37038 ft 467 kts 151°
2026-04-23 17:39 38.33760 23.62137 37030 ft 468 kts 151°
2026-04-23 17:39 38.28340 23.66740 37022 ft 468 kts 151°
2026-04-23 17:40 38.22923 23.71354 37017 ft 469 kts 151°
2026-04-23 17:40 38.17495 23.75973 37012 ft 469 kts 151°
2026-04-23 17:41 38.12084 23.80641 37011 ft 470 kts 150°
2026-04-23 17:41 38.04069 23.87743 37017 ft 471 kts 150°
2026-04-23 17:42 37.95967 23.94875 37014 ft 470 kts 151°
2026-04-23 17:43 37.90585 23.99584 37014 ft 471 kts 151°
2026-04-23 17:43 37.85191 24.04286 37012 ft 470 kts 151°
2026-04-23 17:44 37.79803 24.08977 37010 ft 471 kts 152°
2026-04-23 17:44 37.71704 24.16019 37010 ft 470 kts 152°
2026-04-23 17:45 37.63613 24.23039 37005 ft 470 kts 152°
2026-04-23 17:46 37.56422 24.29254 37007 ft 470 kts 152°
2026-04-23 17:46 37.50966 24.33754 37001 ft 468 kts 155°
2026-04-23 17:47 37.45429 24.38031 37003 ft 467 kts 155°
2026-04-23 17:48 37.37121 24.44452 36990 ft 467 kts 155°
2026-04-23 17:48 37.31604 24.48778 36992 ft 468 kts 155°
2026-04-23 17:49 37.26085 24.53104 36991 ft 468 kts 155°
2026-04-23 17:49 37.20560 24.57420 36997 ft 468 kts 155°
2026-04-23 17:50 37.15032 24.61722 36990 ft 468 kts 155°
2026-04-23 17:50 37.06733 24.68166 36983 ft 468 kts 155°
2026-04-23 17:51 37.01205 24.72454 36975 ft 468 kts 155°
2026-04-23 17:52 36.92909 24.78866 36961 ft 468 kts 155°
2026-04-23 17:52 36.87370 24.83155 36847 ft 466 kts 155°
2026-04-23 17:52 36.84629 24.85279 35780 ft 463 kts 155°
2026-04-23 17:53 36.79224 24.89469 33895 ft 450 kts 156°
2026-04-23 17:53 36.76594 24.91510 33015 ft 440 kts 156°
2026-04-23 17:53 36.74018 24.93506 32170 ft 431 kts 157°
2026-04-23 17:54 36.71508 24.95443 31812 ft 423 kts 157°
2026-04-23 17:54 36.68986 24.97374 31549 ft 426 kts 157°
2026-04-23 17:54 36.63909 25.01245 30818 ft 430 kts 157°
2026-04-23 17:55 36.58838 25.05125 29747 ft 430 kts 157°
2026-04-23 17:55 36.56297 25.07074 29230 ft 426 kts 156°
2026-04-23 17:55 36.53785 25.09002 28730 ft 422 kts 156°
2026-04-23 17:56 36.51295 25.10908 28237 ft 419 kts 156°
2026-04-23 17:56 36.46367 25.14667 27242 ft 412 kts 156°
2026-04-23 17:56 36.43935 25.16519 26778 ft 409 kts 156°
2026-04-23 17:57 36.41518 25.18362 26306 ft 406 kts 156°
2026-04-23 17:57 36.39117 25.20187 25857 ft 403 kts 156°
2026-04-23 17:57 36.34370 25.23798 24971 ft 397 kts 156°
2026-04-23 17:58 36.32027 25.25579 24537 ft 395 kts 156°
2026-04-23 17:58 36.29684 25.27356 24104 ft 392 kts 156°
2026-04-23 17:58 36.27362 25.29115 23667 ft 391 kts 156°
2026-04-23 17:58 36.25046 25.30866 23175 ft 389 kts 156°
2026-04-23 17:59 36.22748 25.32605 22742 ft 385 kts 156°
2026-04-23 17:59 36.20472 25.34332 22302 ft 382 kts 155°
2026-04-23 17:59 36.18245 25.36019 21867 ft 379 kts 155°
2026-04-23 17:59 36.16005 25.37713 21433 ft 376 kts 155°
2026-04-23 18:00 36.13781 25.39390 20989 ft 374 kts 156°
2026-04-23 18:00 36.11561 25.41053 20549 ft 371 kts 157°
2026-04-23 18:00 36.09306 25.42526 20147 ft 364 kts 162°
2026-04-23 18:00 36.06986 25.43825 19729 ft 359 kts 164°
2026-04-23 18:01 36.04724 25.44997 19331 ft 356 kts 165°
2026-04-23 18:01 36.02440 25.46160 18932 ft 354 kts 165°
2026-04-23 18:01 36.00172 25.47333 18527 ft 352 kts 164°
2026-04-23 18:01 35.97926 25.48523 18116 ft 351 kts 163°
2026-04-23 18:02 35.95699 25.49730 17709 ft 348 kts 163°
2026-04-23 18:02 35.93497 25.50940 17324 ft 345 kts 163°
2026-04-23 18:02 35.91318 25.52147 16934 ft 342 kts 163°
2026-04-23 18:02 35.89160 25.53345 16555 ft 339 kts 163°
2026-04-23 18:03 35.87013 25.54535 16179 ft 337 kts 163°
2026-04-23 18:03 35.84888 25.55707 15813 ft 334 kts 163°
2026-04-23 18:03 35.82771 25.56872 15445 ft 332 kts 163°
2026-04-23 18:03 35.80668 25.58026 15068 ft 330 kts 163°
2026-04-23 18:04 35.78571 25.59176 14707 ft 328 kts 163°
2026-04-23 18:04 35.76491 25.60318 14339 ft 327 kts 163°
2026-04-23 18:04 35.74414 25.61460 13962 ft 326 kts 163°
2026-04-23 18:04 35.72350 25.62593 13582 ft 325 kts 163°
2026-04-23 18:05 35.70288 25.63722 13195 ft 323 kts 163°
2026-04-23 18:05 35.68236 25.64845 12821 ft 321 kts 163°
2026-04-23 18:05 35.66204 25.65955 12453 ft 319 kts 163°
2026-04-23 18:05 35.64183 25.67058 12074 ft 317 kts 163°
2026-04-23 18:06 35.62171 25.68157 11704 ft 315 kts 163°
2026-04-23 18:06 35.60173 25.69249 11335 ft 314 kts 162°
2026-04-23 18:06 35.58183 25.70336 10964 ft 312 kts 162°
2026-04-23 18:06 35.56202 25.71419 10591 ft 311 kts 162°
2026-04-23 18:07 35.54226 25.72499 10240 ft 309 kts 162°
2026-04-23 18:07 35.52283 25.73565 10154 ft 305 kts 162°
2026-04-23 18:07 35.50349 25.74623 10040 ft 304 kts 162°
2026-04-23 18:07 35.48410 25.75676 9814 ft 305 kts 163°
2026-04-23 18:08 35.47123 25.76374 9522 ft 305 kts 162°
2026-04-23 18:08 35.44551 25.77767 9021 ft 299 kts 162°
2026-04-23 18:08 35.42653 25.78794 8667 ft 296 kts 162°
2026-04-23 18:08 35.40772 25.79813 8314 ft 294 kts 161°
2026-04-23 18:09 35.38911 25.80825 7965 ft 292 kts 161°
2026-04-23 18:09 35.37057 25.81832 7610 ft 289 kts 161°
2026-04-23 18:09 35.35232 25.82822 7269 ft 287 kts 160°
2026-04-23 18:09 35.33405 25.83813 6930 ft 285 kts 160°
2026-04-23 18:10 35.31596 25.84792 6582 ft 280 kts 160°
2026-04-23 18:10 35.29873 25.85731 6246 ft 262 kts 159°
2026-04-23 18:10 35.28259 25.86611 5931 ft 246 kts 159°
2026-04-23 18:10 35.26716 25.87450 5668 ft 238 kts 159°
2026-04-23 18:11 35.25276 25.88233 5423 ft 216 kts 159°
2026-04-23 18:11 35.23985 25.88936 5193 ft 188 kts 159°
2026-04-23 18:11 35.22875 25.89540 4945 ft 164 kts 160°
2026-04-23 18:11 35.21863 25.90088 4745 ft 156 kts 160°
2026-04-23 18:12 35.20879 25.90616 4564 ft 154 kts 160°
2026-04-23 18:12 35.19897 25.91140 4372 ft 154 kts 160°
2026-04-23 18:12 35.18913 25.91666 4195 ft 155 kts 160°
2026-04-23 18:12 35.17939 25.92189 4005 ft 154 kts 159°
2026-04-23 18:13 35.17015 25.92846 3782 ft 157 kts 136°
2026-04-23 18:13 35.16553 25.94036 3552 ft 157 kts 98°
2026-04-23 18:13 35.16400 25.95354 3313 ft 156 kts 97°
2026-04-23 18:13 35.16249 25.96660 3070 ft 154 kts 97°
2026-04-23 18:14 35.16099 25.97964 2843 ft 154 kts 97°
2026-04-23 18:14 35.16025 25.99255 2616 ft 151 kts 82°
2026-04-23 18:14 35.16262 26.00497 2319 ft 150 kts 71°
2026-04-23 18:14 35.16395 26.01080 2166 ft 149 kts 71°
2026-04-23 18:15 35.16491 26.01530 2083 ft 146 kts 72°
2026-04-23 18:15 35.16812 26.02686 1737 ft 142 kts 60°
2026-04-23 18:15 35.17322 26.03699 1423 ft 138 kts 53°
2026-04-23 18:15 35.17872 26.04656 1253 ft 139 kts 47°
2026-04-23 18:16 35.18496 26.05548 1005 ft 141 kts 48°
2026-04-23 18:16 35.19119 26.06462 958 ft 139 kts 47°
2026-04-23 18:16 35.19731 26.07373 789 ft 139 kts 46°
2026-04-23 18:17 35.20970 26.09176 431 ft 138 kts 47°
2026-04-23 18:17 35.21547 26.10018 359 ft 109 kts 50°
2026-04-23 18:17 35.21897 26.10535 347 ft 43 kts 50°
2026-04-23 18:17 35.21975 26.10649 333 ft 12 kts 50°
2026-04-23 18:18 35.22042 26.10749 331 ft 24 kts 51°
2026-04-23 18:18 35.22153 26.10920 324 ft 11 kts 69°
2026-04-23 18:18 35.22190 26.10981 325 ft 9 kts 331°
2026-04-23 18:18 35.22163 26.10921 324 ft 16 kts 222°
2026-04-23 18:19 35.22049 26.10755 331 ft 28 kts 230°
2026-04-23 18:19 35.21932 26.10585 336 ft 25 kts 230°
2026-04-23 18:19 35.21819 26.10420 351 ft 24 kts 230°
2026-04-23 18:19 35.21717 26.10268 356 ft 22 kts 231°
2026-04-23 18:20 35.21627 26.10134 357 ft 20 kts 231°
2026-04-23 18:20 35.21606 26.10030 357 ft 0 kts 274°
2026-04-23 18:20 35.21606 26.10029 356 ft 1 kts 274°
2026-04-23 18:20 35.21616 26.09957 358 ft 11 kts 280°
2026-04-23 18:21 35.21607 26.09898 362 ft 8 kts 240°
2026-04-23 18:21 35.21565 26.09825 365 ft 12 kts 240°
2026-04-23 18:21 35.21600 26.09775 366 ft 9 kts 350°
2026-04-23 18:21 35.21631 26.09792 366 ft 0 kts 56°